GW1230 Weather Reports


Display with metric or nautical units.
time (UTC)temp
F
wind
direction
speed
MPH
gust
MPH
rain 1hr
in
rain 24hr
in
rain mn
in
humidity
%
barometer
mb
20260506174451 54 203 6.0 8.0 0.00 0.00 0.00 90 1019.9
20260506173946 54 200 3.0 5.0 0.00 0.00 0.00 91 1019.9
20260506173444 54 163 7.0 8.0 0.00 0.00 0.00 91 1019.9
20260506172941 54 188 3.0 3.0 0.00 0.00 0.00 92 1020.2
20260506172438 53 202 2.0 3.0 0.00 0.00 0.00 93 1020.2
20260506171934 53 182 5.0 6.0 0.00 0.00 0.00 93 1020.2
20260506171432 53 192 5.0 7.0 0.00 0.00 0.00 93 1020.0
20260506170929 53 200 5.0 6.0 0.00 0.00 0.00 93 1020.2
20260506170425 53 199 4.0 5.0 0.00 0.00 0.00 93 1020.4
20260506165919 53 222 3.0 5.0 0.00 0.00 0.00 93 1020.2
20260506165416 53 210 3.0 5.0 0.00 0.00 0.00 93 1020.1
20260506164907 53 198 8.0 10.0 0.00 0.00 0.00 92 1020.1
20260506164403 53 189 2.0 2.0 0.00 0.00 0.00 92 1020.0
20260506163901 53 216 2.0 3.0 0.00 0.00 0.00 92 1020.1
20260506163356 53 250 3.0 5.0 0.00 0.00 0.00 92 1019.9
20260506162851 53 211 3.0 3.0 0.00 0.00 0.00 92 1019.9
20260506162349 53 202 9.0 10.0 0.00 0.00 0.00 91 1019.9
20260506161846 54 261 4.0 6.0 0.00 0.00 0.00 92 1019.7
20260506161344 53 205 1.0 2.0 0.00 0.00 0.00 92 1019.5
20260506160842 53 190 7.0 8.0 0.00 0.00 0.00 93 1019.5
20260506160338 53 169 5.0 6.0 0.00 0.00 0.00 94 1019.4
20260506155836 52 193 9.0 10.0 0.00 0.00 0.00 94 1019.4
20260506155332 52 187 6.0 8.0 0.00 0.00 0.00 95 1019.5
20260506153445 52 187 10.0 13.0 0.00 0.00 0.00 97 1019.6
20260506152942 52 188 4.0 5.0 0.00 0.00 0.00 97 1019.8
20260506152439 52 242 2.0 3.0 0.00 0.00 0.00 97 1019.9
20260506151938 52 268 4.0 6.0 0.00 0.00 0.00 97 1019.9
20260506151434 52 195 3.0 5.0 0.00 0.00 0.00 97 1019.7
20260506150932 52 265 0.0 0.0 0.00 0.00 0.00 97 1019.7
20260506150428 52 268 3.0 3.0 0.00 0.00 0.00 96 1019.5
20260506145925 52 193 3.0 5.0 0.00 0.00 0.00 96 1019.5
20260506145421 52 193 4.0 6.0 0.00 0.00 0.00 96 1019.1
20260506144919 52 194 6.0 7.0 0.00 0.00 0.00 96 1019.2
20260506144415 52 213 0.0 1.0 0.00 0.00 0.00 96 1019.3
20260506143914 52 177 5.0 6.0 0.00 0.00 0.00 96 1019.5
20260506143410 52 230 2.0 3.0 0.00 0.00 0.00 96 1019.6
20260506142909 52 219 3.0 3.0 0.00 0.00 0.00 95 1019.6
20260506142406 52 242 5.0 6.0 0.00 0.00 0.00 95 1019.6
20260506141904 52 232 1.0 2.0 0.00 0.00 0.00 95 1019.4
20260506141402 52 228 1.0 2.0 0.00 0.00 0.00 95 1019.7
20260506140900 52 222 1.0 2.0 0.00 0.00 0.00 95 1019.2
20260506140356 52 186 3.0 6.0 0.00 0.00 0.00 94 1019.0
20260506135854 52 193 5.0 6.0 0.00 0.00 0.00 94 1019.4
20260506135350 52 227 3.0 3.0 0.00 0.00 0.00 94 1019.2
20260506134847 52 192 2.0 2.0 0.00 0.00 0.00 94 1019.2
20260506134343 52 258 1.0 1.0 0.00 0.00 0.00 94 1019.4
20260506133840 52 240 2.0 2.0 0.00 0.00 0.00 93 1019.3
20260506133337 52 201 4.0 5.0 0.00 0.00 0.00 93 1019.1
20260506132833 53 209 2.0 3.0 0.00 0.00 0.00 93 1019.1
20260506132331 53 262 2.0 2.0 0.00 0.00 0.00 93 1019.1
20260506131829 53 230 4.0 5.0 0.00 0.00 0.00 93 1019.1
20260506131325 53 283 1.0 1.0 0.00 0.00 0.00 93 1019.0
20260506130822 53 265 5.0 6.0 0.00 0.00 0.00 93 1018.9
20260506130318 53 216 3.0 6.0 0.00 0.00 0.00 92 1019.1
20260506125816 53 208 3.0 5.0 0.00 0.00 0.00 92 1018.7
20260506125314 53 207 4.0 5.0 0.00 0.00 0.00 92 1018.5
20260506124813 53 216 6.0 7.0 0.00 0.00 0.00 92 1018.6
20260506124309 53 221 1.0 2.0 0.00 0.00 0.00 92 1018.8
20260506123807 53 210 6.0 7.0 0.00 0.00 0.00 91 1018.6
20260506123306 53 202 7.0 8.0 0.00 0.00 0.00 91 1018.8
20260506122802 53 200 5.0 6.0 0.00 0.00 0.00 91 1018.6
20260506122259 53 218 2.0 2.0 0.00 0.00 0.00 91 1018.5
20260506121757 53 218 2.0 3.0 0.00 0.00 0.00 91 1018.5
20260506121254 53 212 4.0 5.0 0.00 0.00 0.00 91 1018.4
20260506120751 53 190 4.0 5.0 0.00 0.00 0.00 91 1018.6
20260506120249 53 161 3.0 3.0 0.00 0.00 0.00 91 1018.4
20260506115746 53 240 0.0 0.0 0.00 0.00 0.00 91 1018.5
20260506115244 53 178 6.0 7.0 0.00 0.00 0.00 91 1018.4
20260506114742 53 201 3.0 3.0 0.00 0.00 0.00 91 1018.3
20260506114239 53 217 3.0 3.0 0.00 0.00 0.00 91 1018.3
20260506113738 53 207 6.0 7.0 0.00 0.00 0.00 91 1018.2
20260506113235 53 191 5.0 6.0 0.00 0.00 0.00 91 1018.2
20260506112731 53 198 6.0 7.0 0.00 0.00 0.00 91 1018.1
20260506112229 53 203 4.0 5.0 0.00 0.00 0.00 91 1018.2
20260506111726 53 197 2.0 3.0 0.00 0.00 0.00 91 1018.0
20260506111224 53 205 5.0 7.0 0.00 0.00 0.00 91 1018.1
20260506110721 53 194 5.0 8.0 0.00 0.00 0.00 91 1017.9
20260506110218 53 226 0.0 1.0 0.00 0.00 0.00 92 1018.0
20260506105714 53 227 4.0 5.0 0.00 0.00 0.00 92 1018.1
20260506105211 53 237 2.0 2.0 0.00 0.00 0.00 92 1017.7
20260506104710 53 254 4.0 5.0 0.00 0.00 0.00 92 1017.8
20260506104207 52 273 2.0 2.0 0.00 0.00 0.00 92 1018.0
20260506103704 52 261 0.0 0.0 0.00 0.00 0.00 92 1017.8
20260506103201 52 278 0.0 1.0 0.00 0.00 0.00 92 1017.9
20260506102659 52 253 1.0 1.0 0.00 0.00 0.00 92 1018.0
20260506102156 52 254 2.0 2.0 0.00 0.00 0.00 92 1017.9
20260506101653 53 209 2.0 3.0 0.00 0.00 0.00 92 1017.9
20260506101150 53 212 3.0 5.0 0.00 0.00 0.00 91 1017.8
20260506100648 53 247 5.0 7.0 0.00 0.00 0.00 91 1017.7
20260506100146 53 266 5.0 7.0 0.00 0.00 0.00 91 1017.7
20260506095644 53 221 3.0 5.0 0.00 0.00 0.00 91 1017.8
20260506095140 53 252 4.0 6.0 0.00 0.00 0.00 91 1017.5
20260506094638 53 251 3.0 3.0 0.00 0.00 0.00 91 1017.4
20260506094136 53 203 1.0 2.0 0.00 0.00 0.00 91 1017.6
20260506093634 53 257 1.0 2.0 0.00 0.00 0.00 91 1017.4
20260506093131 53 253 0.0 0.0 0.00 0.00 0.00 91 1017.5
20260506092628 53 233 1.0 2.0 0.00 0.00 0.00 91 1017.5
20260506092125 53 258 0.0 0.0 0.00 0.00 0.00 91 1017.6
20260506091623 53 254 3.0 3.0 0.00 0.00 0.00 91 1017.3
20260506091121 53 249 0.0 0.0 0.00 0.00 0.00 90 1017.3
20260506090619 53 245 1.0 2.0 0.00 0.00 0.00 90 1017.2
20260506090114 53 264 0.0 1.0 0.00 0.00 0.00 90 1017.3
20260506085612 53 248 2.0 2.0 0.00 0.00 0.00 90 1017.2
20260506085108 54 274 1.0 1.0 0.00 0.00 0.00 89 1017.3
20260506084605 54 216 2.0 2.0 0.00 0.00 0.00 89 1017.0
20260506084101 54 252 2.0 2.0 0.00 0.00 0.00 89 1017.0
20260506083558 54 278 0.0 0.0 0.00 0.00 0.00 89 1017.0
20260506083055 54 247 1.0 2.0 0.00 0.00 0.00 89 1017.1
20260506082552 55 252 1.0 2.0 0.00 0.00 0.00 88 1016.9
20260506082048 55 214 2.0 2.0 0.00 0.00 0.00 88 1016.9
20260506081546 55 253 0.0 0.0 0.00 0.00 0.00 88 1016.7
20260506081043 55 227 2.0 3.0 0.00 0.00 0.00 88 1016.9
20260506080541 55 272 1.0 1.0 0.00 0.00 0.00 87 1016.7
20260506073525 56 196 4.0 5.0 0.00 0.00 0.00 87 1016.7
20260506073021 55 210 3.0 3.0 0.00 0.00 0.00 88 1016.8
20260506072519 55 199 4.0 5.0 0.00 0.00 0.00 88 1016.6
20260506072016 55 202 3.0 3.0 0.00 0.00 0.00 88 1016.5
20260506071514 56 266 2.0 3.0 0.00 0.00 0.00 87 1016.8
20260506071011 56 239 2.0 2.0 0.00 0.00 0.00 87 1016.5
20260506070508 56 235 1.0 2.0 0.00 0.00 0.00 87 1016.5
20260506062445 57 250 1.0 1.0 0.00 0.00 0.00 85 1016.1
20260506061941 57 250 1.0 2.0 0.00 0.00 0.00 85 1016.2
20260506061438 57 246 5.0 6.0 0.00 0.00 0.00 85 1016.2
20260506060936 58 269 3.0 3.0 0.00 0.00 0.00 85 1016.0
20260506060434 58 286 0.0 1.0 0.00 0.00 0.00 84 1015.9
20260506051406 60 207 7.0 9.0 0.00 0.00 0.00 81 1015.5
20260506050903 60 239 1.0 1.0 0.00 0.00 0.00 81 1015.5
20260506050401 60 191 4.0 5.0 0.00 0.00 0.00 81 1015.5
20260506044851 61 150 4.0 5.0 0.00 0.00 0.00 80 1015.3
20260506044349 61 210 4.0 6.0 0.00 0.00 0.00 80 1015.2
20260506043846 61 189 3.0 3.0 0.00 0.00 0.00 80 1015.4
20260506043343 61 196 5.0 6.0 0.00 0.00 0.00 80 1015.3
20260506042841 61 209 3.0 5.0 0.00 0.00 0.00 80 1015.4
20260506042340 61 197 6.0 8.0 0.00 0.00 0.00 80 1015.1
20260506041838 61 202 5.0 7.0 0.00 0.00 0.00 80 1015.3
20260506041335 61 197 5.0 6.0 0.00 0.00 0.00 80 1015.1
20260506040832 61 209 3.0 3.0 0.00 0.00 0.00 80 1015.2
20260506040329 61 209 3.0 5.0 0.00 0.00 0.00 80 1015.1
20260506035825 61 208 2.0 2.0 0.00 0.00 0.00 79 1015.3
20260506035323 62 255 3.0 5.0 0.00 0.00 0.00 79 1015.1
20260506034820 62 271 0.0 1.0 0.00 0.00 0.00 78 1015.0
20260506034317 62 245 2.0 3.0 0.00 0.00 0.00 78 1015.2
20260506033814 62 254 0.0 2.0 0.00 0.00 0.00 78 1015.0
20260506033311 62 218 1.0 2.0 0.00 0.00 0.00 77 1014.9
20260506032808 62 223 1.0 2.0 0.00 0.00 0.00 77 1014.9
20260506032306 62 237 2.0 3.0 0.00 0.00 0.00 76 1014.8
20260506031801 63 191 5.0 6.0 0.00 0.00 0.00 76 1015.0
20260506031259 63 196 3.0 3.0 0.00 0.00 0.00 75 1014.8
20260506030757 63 177 4.0 5.0 0.00 0.00 0.00 75 1014.6
20260506030254 63 182 6.0 7.0 0.00 0.00 0.00 75 1014.8
20260506025751 63 195 5.0 7.0 0.00 0.00 0.00 75 1014.7
20260506025247 63 201 2.0 2.0 0.00 0.00 0.00 74 1014.8
20260506024744 63 186 3.0 3.0 0.00 0.00 0.00 74 1014.8
20260506024241 63 232 4.0 6.0 0.00 0.00 0.00 74 1014.8
20260506023737 63 195 6.0 7.0 0.00 0.00 0.00 74 1014.7
20260506023234 64 202 6.0 7.0 0.00 0.00 0.00 73 1014.6
20260506022731 64 247 4.0 5.0 0.00 0.00 0.00 73 1014.6
20260506022229 64 232 2.0 2.0 0.00 0.00 0.00 73 1014.8
20260506021727 64 180 7.0 9.0 0.00 0.00 0.00 73 1014.6
20260506021224 64 184 7.0 9.0 0.00 0.00 0.00 73 1014.6
20260506020720 64 191 10.0 10.0 0.00 0.00 0.00 72 1014.5
20260506020218 64 194 5.0 6.0 0.00 0.00 0.00 72 1014.7
20260506015710 64 175 5.0 6.0 0.00 0.00 0.00 73 1015.1
20260506015207 64 174 5.0 6.0 0.00 0.00 0.00 72 1014.8
20260506014704 65 205 4.0 7.0 0.00 0.00 0.00 71 1014.7
20260506014200 65 198 2.0 2.0 0.00 0.00 0.00 70 1014.9
20260506013658 65 245 3.0 5.0 0.00 0.00 0.00 70 1014.8
20260506013155 64 183 3.0 3.0 0.00 0.00 0.00 72 1014.8
20260506012651 65 187 5.0 8.0 0.00 0.00 0.00 70 1014.8
20260506012148 65 274 1.0 2.0 0.00 0.00 0.00 70 1014.7
20260506011645 64 190 6.0 7.0 0.00 0.00 0.00 71 1014.8
20260506011141 64 240 1.0 1.0 0.00 0.00 0.00 72 1014.8
20260506010640 65 191 5.0 7.0 0.00 0.00 0.00 71 1014.8
20260506010137 64 214 5.0 7.0 0.00 0.00 0.00 72 1014.8
20260506005634 64 231 4.0 5.0 0.00 0.00 0.00 72 1014.7
20260506005131 64 210 4.0 6.0 0.00 0.00 0.00 73 1015.0
20260506004627 64 195 5.0 6.0 0.00 0.00 0.00 73 1014.8
20260506004124 65 210 2.0 3.0 0.00 0.00 0.00 72 1014.9
20260506003620 64 263 2.0 2.0 0.00 0.00 0.00 74 1014.9
20260506003116 64 196 5.0 6.0 0.00 0.00 0.00 74 1014.8
20260506002613 63 255 5.0 6.0 0.00 0.00 0.00 74 1015.1
20260506002109 64 207 3.0 3.0 0.00 0.00 0.00 74 1014.9
20260506001605 63 204 6.0 7.0 0.00 0.00 0.00 74 1015.1
20260506001102 64 182 6.0 8.0 0.00 0.00 0.00 73 1014.9
20260506000600 64 192 4.0 5.0 0.00 0.00 0.00 72 1015.0
20260506000057 63 200 11.0 13.0 0.00 0.00 0.00 74 1015.2
20260505235555 63 142 6.0 7.0 0.00 0.00 0.00 74 1015.2
20260505235052 64 181 6.0 7.0 0.00 0.00 0.00 73 1015.5
20260505234549 63 210 3.0 5.0 0.00 0.00 0.00 73 1015.3
20260505234045 63 182 5.0 7.0 0.00 0.00 0.00 74 1015.4
20260505233543 63 223 5.0 6.0 0.00 0.00 0.00 74 1015.4
20260505233040 63 215 6.0 8.0 0.00 0.00 0.00 74 1015.5
20260505232538 63 182 4.0 7.0 0.00 0.00 0.00 74 1015.5
20260505232035 64 260 2.0 2.0 0.00 0.00 0.00 73 1015.8
20260505231532 62 194 8.0 9.0 0.00 0.00 0.00 74 1015.6
20260505231031 62 196 6.0 9.0 0.00 0.00 0.00 76 1015.6
20260505230528 61 138 4.0 5.0 0.00 0.00 0.00 77 1015.5
20260505230024 63 156 7.0 9.0 0.00 0.00 0.00 74 1015.6
20260505225521 63 210 4.0 8.0 0.00 0.00 0.00 74 1015.9
20260505225017 62 219 1.0 2.0 0.00 0.00 0.00 76 1015.7
20260505224514 63 198 8.0 13.0 0.00 0.00 0.00 75 1015.9
20260505224011 62 210 2.0 2.0 0.00 0.00 0.00 76 1015.7
20260505223508 62 191 9.0 10.0 0.00 0.00 0.00 76 1015.6
20260505223004 62 184 3.0 7.0 0.00 0.00 0.00 76 1015.9
20260505222501 62 193 11.0 13.0 0.00 0.00 0.00 76 1015.9
20260505221956 61 226 7.0 9.0 0.00 0.00 0.00 78 1016.1
20260505221454 61 221 7.0 9.0 0.00 0.00 0.00 77 1016.1
20260505220951 60 200 3.0 5.0 0.00 0.00 0.00 79 1016.1
20260505220448 60 147 2.0 2.0 0.00 0.00 0.00 78 1016.2
20260505215945 60 241 2.0 2.0 0.00 0.00 0.00 78 1016.3
20260505215444 60 178 5.0 7.0 0.00 0.00 0.00 78 1016.2
20260505214941 60 225 3.0 5.0 0.00 0.00 0.00 78 1016.5
20260505214439 60 219 6.0 7.0 0.00 0.00 0.00 79 1016.2
20260505213936 60 245 4.0 5.0 0.00 0.00 0.00 79 1016.3
20260505213433 60 180 5.0 6.0 0.00 0.00 0.00 80 1016.3
20260505212929 59 161 3.0 3.0 0.00 0.00 0.00 79 1016.2
20260505212426 60 209 3.0 3.0 0.00 0.00 0.00 79 1016.5
20260505211923 60 165 3.0 3.0 0.00 0.00 0.00 80 1016.5
20260505211420 60 176 7.0 8.0 0.00 0.00 0.00 78 1016.2
20260505210917 60 193 5.0 6.0 0.00 0.00 0.00 78 1016.3
20260505210414 59 186 2.0 2.0 0.00 0.00 0.00 80 1016.3
20260505205911 60 212 3.0 3.0 0.00 0.00 0.00 79 1016.3
20260505205409 59 216 4.0 5.0 0.00 0.00 0.00 79 1016.4
20260505204906 59 173 5.0 6.0 0.00 0.00 0.00 80 1016.2
20260505204403 59 174 1.0 2.0 0.00 0.00 0.00 80 1016.3
20260505203900 60 186 9.0 11.0 0.00 0.00 0.00 79 1016.6
20260505203357 59 222 1.0 2.0 0.00 0.00 0.00 80 1016.6
20260505202853 58 201 8.0 10.0 0.00 0.00 0.00 81 1016.6
20260505202349 58 201 7.0 8.0 0.00 0.00 0.00 81 1016.5
20260505201846 58 186 7.0 8.0 0.00 0.00 0.00 81 1016.6
20260505201343 58 198 6.0 7.0 0.00 0.00 0.00 82 1016.4
20260505200842 58 264 1.0 2.0 0.00 0.00 0.00 82 1016.5
20260505200338 59 273 1.0 1.0 0.00 0.00 0.00 82 1016.5
20260505195834 58 222 3.0 3.0 0.00 0.00 0.00 82 1016.4
20260505195331 58 269 3.0 5.0 0.00 0.00 0.00 82 1016.5
20260505194828 59 216 3.0 5.0 0.00 0.00 0.00 82 1016.4
20260505194325 58 207 3.0 3.0 0.00 0.00 0.00 82 1016.4
20260505193820 58 160 5.0 7.0 0.00 0.00 0.00 83 1016.7
20260505193319 58 243 6.0 7.0 0.00 0.00 0.00 82 1016.5
20260505192816 58 229 6.0 7.0 0.00 0.00 0.00 82 1016.5
20260505192315 58 207 4.0 5.0 0.00 0.00 0.00 83 1016.4
20260505191812 58 217 3.0 5.0 0.00 0.00 0.00 83 1016.5
20260505191310 58 188 4.0 5.0 0.00 0.00 0.00 83 1016.5
20260505190807 57 251 4.0 5.0 0.00 0.00 0.00 83 1016.4
20260505190302 58 264 5.0 6.0 0.00 0.00 0.00 83 1016.4
20260505185758 58 184 5.0 7.0 0.00 0.00 0.00 83 1016.2
20260505185254 57 185 5.0 6.0 0.00 0.00 0.00 84 1016.3
20260505184750 58 192 3.0 5.0 0.00 0.00 0.00 83 1016.3
20260505184248 57 219 2.0 3.0 0.00 0.00 0.00 83 1016.4
20260505183745 57 238 1.0 2.0 0.00 0.00 0.00 84 1016.4
20260505183242 57 186 5.0 7.0 0.00 0.00 0.00 84 1016.3
20260505182738 57 197 5.0 6.0 0.00 0.00 0.00 84 1016.3
20260505182235 57 210 3.0 5.0 0.00 0.00 0.00 84 1016.3
20260505181732 57 179 6.0 7.0 0.00 0.00 0.00 84 1016.6
20260505181229 57 264 2.0 2.0 0.00 0.00 0.00 84 1016.4
20260505180726 57 186 5.0 6.0 0.00 0.00 0.00 84 1016.4
20260505180222 57 209 2.0 2.0 0.00 0.00 0.00 84 1016.4
20260505175719 57 198 2.0 2.0 0.00 0.00 0.00 85 1016.2
20260505175215 56 190 3.0 3.0 0.00 0.00 0.00 85 1016.1
20260505174712 56 201 9.0 11.0 0.00 0.00 0.00 85 1016.3